Location: Москва
(55.7504°N, 37.6175°E)
Time: 10:14:04
(UTC+03:00)

Envisat - Pass Details

Date: 24 September 2021
Orbit: 764 x 766 km, 98.2° (Epoch: 23 October)

Event Time Altitude Azimuth Distance (km) Brightness Sun altitude
Rises 04:11:45 0° 26° (NNE) 3,247 7.1 -18.0°
Reaches altitude 10° 04:15:10 10° 50° (NE) 2,314 6.7 -17.6°
Maximum altitude 04:17:59 15° 83° (E) 1,997 6.2 -17.2°
Drops below altitude 10° 04:20:47 10° 117° (ESE) 2,304 6.0 -16.9°
Sets 04:24:09 0° 141° (SE) 3,223 6.4 -16.4°
